Point Lay, AK

3:03 PM AKDT on May 23, 2017 (GMT -0800)
Point Lay

Weather History for PPIZ - July, 2013

Change the Weather History Date:

Monday, July 8, 2013

  Actual Average Record
Temperature  
Mean Temperature 52 °F -  
Max Temperature 59 °F 48 °F 68 °F (2008)
Min Temperature 44 °F 40 °F 33 °F (2002)
Degree Days  
Heating Degree Days 14    
Growing Degree Days 2 (Base 50)    
Moisture  
Dew Point 43 °F    
Average Humidity 72    
Maximum Humidity 89    
Minimum Humidity 53    
Precipitation  
Precipitation 0.00 in - - ()
Sea Level Pressure  
Sea Level Pressure 29.85 in    
Wind  
Wind Speed 19 mph (NE)    
Max Wind Speed 28 mph    
Max Gust Speed 32 mph    
Visibility 10 miles    
Events      
Averages and records for this station are not official NWS values.
T = Trace of Precipitation, MM = Missing Value Source: NWS Daily Summary

Daily Weather History Graph

Daily Weather History Graph

Search for Another Location

Airport or City:

Trip Planner

Search our weather history database for the weather conditions in past years. The results will help you decide how hot, cold, wet, or windy it might be!

Date:

Astronomy

Dec. 31, 1969 Rise Set
Actual Time Sun does not set Sun does not set
Civil Twilight Sun does not set Sun does not set
Nautical Twilight Sun does not set Sun does not set
Astronomical Twilight Sun does not set Sun does not set
Moon 5:12 AM AKDT (7/8) 12:59 AM AKDT (7/8)
Length of Visible Light 24h 00m
Length of Day
24h 00m
New Moon, 0% of the Moon is Illuminated
Jul 8
New Moon
Jul 15
First Quarter
Jul 22
Full
Jul 29
Last Quarter
Aug 6
New

Hourly Weather History & Observations

Time (AKDT) Temp. Windchill Dew Point Humidity Pressure Visibility Wind Dir Wind Speed Gust Speed Precip Events Conditions
12:56 AM 52.9 °F - 45.9 °F 77% 29.76 in 10.0 mi NE 13.8 mph - N/A   Clear
1:56 AM 52.0 °F - 45.9 °F 80% 29.78 in 10.0 mi ENE 13.8 mph 21.9 mph N/A   Clear
2:56 AM 50.0 °F - 45.0 °F 83% 29.78 in 10.0 mi ENE 17.3 mph 25.3 mph N/A   Clear
3:56 AM 48.9 °F - 43.0 °F 80% 29.79 in 10.0 mi ENE 20.7 mph 28.8 mph N/A   Mostly Cloudy
4:56 AM 46.9 °F - 41.9 °F 83% 29.79 in 10.0 mi ENE 18.4 mph 25.3 mph N/A   Partly Cloudy
5:56 AM 45.0 °F 37.6 °F 41.0 °F 86% 29.81 in 10.0 mi ENE 17.3 mph 28.8 mph N/A   Clear
6:56 AM 45.0 °F 37.1 °F 41.0 °F 86% 29.81 in 10.0 mi ENE 19.6 mph 26.5 mph N/A   Clear
7:27 AM 44.6 °F 36.6 °F 41.0 °F 87% 29.80 in 10.0 mi ENE 19.6 mph 26.5 mph N/A   Mostly Cloudy
7:56 AM 45.0 °F 37.1 °F 41.0 °F 86% 29.82 in 10.0 mi ENE 19.6 mph - N/A   Mostly Cloudy
8:17 AM 46.4 °F 38.5 °F 41.0 °F 81% 29.81 in 10.0 mi ENE 21.9 mph 26.5 mph N/A   Overcast
8:28 AM 46.4 °F 38.7 °F 41.0 °F 81% 29.81 in 10.0 mi ENE 20.7 mph - N/A   Mostly Cloudy
8:56 AM 47.8 °F - 41.0 °F 77% 29.83 in 10.0 mi ENE 20.7 mph - N/A   Mostly Cloudy
9:56 AM 50.0 °F - 39.9 °F 68% 29.84 in 10.0 mi ENE 21.9 mph 27.6 mph N/A   Clear
10:56 AM 52.9 °F - 41.9 °F 66% 29.85 in 10.0 mi ENE 18.4 mph 26.5 mph N/A   Partly Cloudy
11:56 AM 54.0 °F - 43.0 °F 66% 29.85 in 10.0 mi ENE 21.9 mph 27.6 mph N/A   Clear
12:56 PM 55.9 °F - 41.0 °F 57% 29.85 in 10.0 mi ENE 23.0 mph 27.6 mph N/A   Clear
1:56 PM 57.9 °F - 41.9 °F 55% 29.86 in 10.0 mi ENE 20.7 mph 27.6 mph N/A   Clear
2:56 PM 59.0 °F - 41.9 °F 53% 29.86 in 10.0 mi ENE 20.7 mph 28.8 mph N/A   Clear
3:56 PM 59.9 °F - 43.0 °F 54% 29.87 in 10.0 mi NE 23.0 mph 28.8 mph N/A   Clear
4:56 PM 59.9 °F - 43.0 °F 54% 29.88 in 10.0 mi ENE 25.3 mph 29.9 mph N/A   Partly Cloudy
5:56 PM 56.8 °F - 45.0 °F 64% 29.88 in 10.0 mi NE 24.2 mph 32.2 mph N/A   Mostly Cloudy
6:56 PM 57.9 °F - 43.9 °F 60% 29.90 in 10.0 mi NE 27.6 mph 31.1 mph N/A   Scattered Clouds
7:56 PM 57.9 °F - 43.9 °F 60% 29.91 in 10.0 mi NE 24.2 mph 29.9 mph N/A   Partly Cloudy
8:56 PM 55.9 °F - 43.0 °F 62% 29.91 in 10.0 mi NNE 27.6 mph - N/A   Clear
9:56 PM 52.9 °F - 43.0 °F 69% 29.93 in 10.0 mi NNE 21.9 mph 29.9 mph N/A   Partly Cloudy
10:56 PM 50.9 °F - 43.0 °F 74% 29.94 in 10.0 mi NNE 20.7 mph - N/A   Clear
11:56 PM 45.0 °F 36.9 °F 41.9 °F 89% 29.96 in 10.0 mi NNE 20.7 mph - N/A   Clear